Home > Weather > Bambari > Past weeks

Flag for Central African Republic Past Weather in Bambari, Central African Republic — Yesterday and Last 2 Weeks

Now
75 °F

Thunderstorms. Partly sunny.


Feels Like: 75 °F
Forecast: 69 / 85 °F
Wind: 2 mph from North

Location: Bangui Airport

Current Time: Jul 26, 2016 at 5:10:41 PM

Latest Report: Jul 26, 2016 at 4:00 PM


Visibility: 5 mi

Pressure: 29.86 "Hg

Humidity: 83%

Dew Point: 70 °F

Location of BambariLocation

Past Weather in Bambari — Graph

°F

Bambari Temperature Yesterday

Maximum temperature yesterday: 90 °F (at 1:00 PM)
Minimum temperature yesterday: 72 °F (at 4:00 AM)
Average temperature yesterday: 77 °F

High & Low Weather Summary for the Past Weeks

 TemperatureHumidityPressure
High91 °F (Jul 22, 2:00 PM)100% (Jul 11, 8:00 PM)30.01 "Hg (Jul 11, 8:00 PM)
Low70 °F (Jul 24, 2:00 AM)55% (Jul 18, 4:00 PM)29.74 "Hg (Jul 25, 3:00 PM)
Average77 °F89%29.90 "Hg
* Reported Jul 11 4:00 PM — Jul 26 4:00 PM, Bambari, Weather by CustomWeather, © 2016

Note: Actual official high and low records may vary slightly from our data, if they occured in-between our weather recording intervals... More about our weather records

Advertising

Bambari Weather History for the Previous 24 Hours

Scroll right to see more
 ConditionsComfort  
Time TempWeatherWind HumidityBarometerVisibility
4:00 PM
Tue, Jul 26
75 °FThunderstorms. Partly sunny.2 mph83%29.86 "Hg5 mi
3:00 PM75 °FThunderstorms. Partly sunny.5 mph83%29.89 "Hg5 mi
2:00 PM73 °FThunderstorms. Partly sunny.2 mph94%29.89 "Hg4 mi
1:00 PM73 °FThunderstorms. Partly sunny.3 mph94%29.92 "Hg4 mi
12:00 PM73 °FThunderstorms. Partly sunny.7 mph94%29.92 "Hg5 mi
11:00 AM73 °FThunderstorms. Partly sunny.3 mph94%29.95 "Hg4 mi
10:00 AM75 °FRain. Partly sunny.2 mph89%29.95 "Hg2 mi
9:00 AM75 °FPartly sunny.3 mph89%29.95 "Hg4 mi
8:00 AM72 °FPartly sunny.3 mph100%29.95 "Hg4 mi
7:00 AM72 °FLight rain. Partly sunny.2 mph100%29.95 "Hg5 mi
6:00 AM72 °FPassing clouds.2 mph100%29.92 "Hg5 mi
5:00 AM72 °FPassing clouds.2 mph94%29.89 "Hg4 mi
4:00 AM72 °FPassing clouds.2 mph94%29.89 "Hg4 mi
3:00 AM72 °FThunderstorms. Passing clouds.No wind94%29.89 "Hg5 mi
2:00 AM72 °FThunderstorms. Passing clouds.No wind94%29.89 "Hg5 mi
1:00 AM72 °FThunderstorms. Passing clouds.3 mph94%29.89 "Hg5 mi
12:00 AM72 °FThunderstorms. Passing clouds.1 mph94%29.89 "Hg5 mi
11:00 PM
Mon, Jul 25
72 °FThunderstorms. Passing clouds.5 mph94%29.92 "Hg5 mi
10:00 PM72 °FThunderstorms. Passing clouds.9 mph100%29.92 "Hg5 mi
9:00 PM72 °FThunderstorms. Passing clouds.5 mph100%29.92 "Hg5 mi
8:00 PM72 °FThunderstorms. Passing clouds.5 mph100%29.86 "Hg5 mi
7:00 PM72 °FThunderstorms. Passing clouds.7 mph100%29.86 "Hg5 mi
6:00 PM72 °FThunderstorms. Scattered clouds.7 mph100%29.80 "Hg4 mi
5:00 PM84 °FThunderstorms. Partly sunny.7 mph74%29.77 "HgN/A
Weather by CustomWeather, © 2016

See weather overviewHow to use our weather pages